Home   Weather   Bergen   Past weeks

Flag for Norway Past Weather in Bergen, Norway — Yesterday and Last 2 Weeks

Now
36 °F

Chilly.


Feels Like: 31 °F
Forecast: 32 / 38 °F
Wind: 6 mph from Southeast

Location: Bergen / Florida

Current Time: Apr 23, 2017 at 8:17:44 pm

Latest Report: Apr 23, 2017 at 7:00 pm


Visibility: N/A

Pressure: 29.86 "Hg

Humidity: 86%

Dew Point: 32 °F

Location of BergenLocation

Past Weather in Bergen — Graph

°F

Bergen Temperature Yesterday

Maximum temperature yesterday: 47 °F (at 11:00 am)
Minimum temperature yesterday: 36 °F (at 11:00 pm)
Average temperature yesterday: 42 °F

High & Low Weather Summary for the Past Weeks

 TemperatureHumidityPressure
High51 °F (Apr 14, 3:00 pm)89% (Apr 20, 11:00 am)30.58 "Hg (Apr 20, 11:00 am)
Low31 °F (Apr 14, 6:00 am)36% (Apr 14, 4:00 pm)29.41 "Hg (Apr 12, 7:00 pm)
Average42 °F74%29.94 "Hg
* Reported Apr 8 6:00 pm — Apr 23 6:00 pm, Bergen, Weather by CustomWeather, © 2017

Note: Actual official high and low records may vary slightly from our data, if they occured in-between our weather recording intervals... More about our weather records

Advertising

Bergen Weather History for the Previous 24 Hours

Scroll right to see more
 ConditionsComfort  
Time TempWeatherWind HumidityBarometerVisibility
6:00 pm
Sun, Apr 23
37 °FChilly.6 mph85%29.90 "HgN/A
5:00 pm36 °FLight rain. Low clouds.7 mph86%29.94 "Hg3 mi
4:00 pm37 °FChilly.3 mph83%29.96 "HgN/A
3:00 pm39 °FChilly.2 mph78%29.98 "HgN/A
2:00 pm36 °FSnow flurries. Low clouds.1 mph80%30.01 "Hg12 mi
1:00 pm41 °FQuite cool.2 mph69%30.02 "HgN/A
12:00 pm39 °FChilly.2 mph71%30.03 "HgN/A
11:00 am40 °FLight mixture of precip. Overcast.1 mph72%30.03 "Hg16 mi
10:00 am40 °FChilly.2 mph73%30.04 "HgN/A
9:00 am36 °FChilly.2 mph84%30.04 "HgN/A
8:00 am34 °FOvercast.7 mph81%30.04 "Hg16 mi
7:00 am35 °FChilly.3 mph83%30.03 "HgN/A
6:00 am35 °FChilly.1 mph83%30.03 "HgN/A
5:00 am34 °FChilly.1 mph83%30.05 "HgN/A
4:00 am35 °FChilly.2 mph82%30.05 "HgN/A
3:00 am34 °FChilly.2 mph81%30.07 "HgN/A
2:00 am35 °FChilly.5 mph76%30.07 "HgN/A
1:00 am36 °FChilly.5 mph79%30.07 "HgN/A
12:00 am36 °FChilly.7 mph80%30.07 "HgN/A
11:00 pm
Sat, Apr 22
36 °FOvercast.8 mph77%30.07 "Hg16 mi
10:00 pm39 °FChilly.6 mph69%30.06 "HgN/A
9:00 pm39 °FChilly.6 mph79%30.06 "HgN/A
8:00 pm38 °FSprinkles. Low clouds.8 mph83%30.06 "Hg5 mi
Weather by CustomWeather, © 2017

See weather overviewHow to use our weather pages